"Pseudo-MPEC" for P1109tj

Created 2020 May 26 12:07:14 UT using Find_Orb

Click here for an explanation of pseudo-MPECs

 
 Astrometry: 
     P1109tj  C2020 05 147(f^!n3c=!bOb)I[0XAstrometryv;^[SKItU8O)2@hg5UP,Vl[?F51
     P1109tj  C2020 05 14u^T+qPU2SZ['57?redacted;?lIQ2kr!F-IBuD'P*RZ*-F8A(?VsF51
     P1109tj  C2020 05 14_u?bRSR-SUo/$7+r5`$IEep],Rc%;8EWsQ0%^=4-Mly2oK!/PJT;F51
     P1109tj  C2020 05 14tkHLneRc#wAclickP(+Vf#jNP]M,x=;NAJj;here8hc#t'ZKHeS-F51
     P1109tj  C2020 05 18ut0eH:uV.ss$;Nl1C^S-;N4uy6:-w5[bU)WXY@Q,xS!y2I]fVxnDF51
     P1109tj  C2020 05 18NGZhTXX5@grvDP/\piqvi^F$V%r!-?5ONG-=gt6s@MkibF;8iy8oF51
     P1109tj  C2020 05 18#oNOJ[n91va:(mfor*F@$t1[=M'Xfp1$?4Mn=QexplanationO2kF51

Station data:
(F51) Pan-STARRS 1, Haleakala  (N20.707235 W156.255910)  US/Hawaii.
   Observers N. Primak, A. Schultz, S. Watters, J. Thiel, T. Goggia. Measurer
   PS1 Science Consortium. 1.8-m Ritchey-Chrétien + CCD.

Orbital elements:  P1109tj
   Perihelion 2020 May 22.376104 +/- 45.8 TT =  9:01:35 (JD 2458991.876104)
Epoch 2020 May 18.0 TT = JDT 2458987.5   Earth MOID: 0.5469   Ma: 0.0367
M 358.92402417 +/- 9                (J2000 ecliptic)          AutoNEOCP
n   0.24587530 +/- 0.121            Peri.  223.80836 +/- 42
a   2.52343876 +/- 0.826            Node    12.46747 +/- 10
e   0.3958820 +/- 0.165             Incl.   13.60506 +/- 4.5
P   4.01                   H 21.1   G  0.15   U 11.3  SR
q 1.52445470 +/- 0.149    Q 3.52242281 +/- 3.2
From 7 observations 2020 May 14-18; mean residual 0".24
Residuals in arcseconds: 
200514 F51  .13+  .45+    200514 F51  .01-  .19-    200518 F51  .13+  .56+    
200514 F51  .03-  .03-    200518 F51  .08-  .39-    
200514 F51  .09-  .23-    200518 F51  .05-  .16-    

Ephemerides (geocentric):
Date (UTC) HH   RA              Dec         delta   r     elong  mag " sig PA
---- -- -- --  -------------   -----------  ------ ------ -----  --- ---- ---
2020 05 26 12  14 01 59.762   -41 03 06.10  .57654 1.5249 145.8 21.9  523 130
2020 05 26 13  14 01 58.771   -41 03 26.85  .57666 1.5249 145.8 21.9  527 130
2020 05 26 14  14 01 57.786   -41 03 47.56  .57678 1.5249 145.7 21.9  531 130
2020 05 26 15  14 01 56.807   -41 04 08.23  .57690 1.5249 145.7 21.9  535 130
2020 05 26 16  14 01 55.834   -41 04 28.86  .57702 1.5249 145.7 21.9  539 130
2020 05 26 17  14 01 54.867   -41 04 49.45  .57714 1.5249 145.7 21.9  543 130
2020 05 26 18  14 01 53.906   -41 05 10.00  .57726 1.5249 145.6 21.9  547 130
2020 05 26 19  14 01 52.951   -41 05 30.51  .57738 1.5249 145.6 21.9  551 130
2020 05 26 20  14 01 52.002   -41 05 50.99  .57750 1.5250 145.6 21.9  555 130
2020 05 26 21  14 01 51.059   -41 06 11.42  .57763 1.5250 145.5 21.9  559 130
2020 05 26 22  14 01 50.122   -41 06 31.82  .57775 1.5250 145.5 21.9  563 130
2020 05 26 23  14 01 49.191   -41 06 52.18  .57787 1.5250 145.5 21.9  567 130
2020 05 27 00  14 01 48.267   -41 07 12.50  .57799 1.5250 145.5 21.9  571 130
2020 05 27 01  14 01 47.348   -41 07 32.78  .57812 1.5250 145.4 21.9  575 130
2020 05 27 02  14 01 46.435   -41 07 53.02  .57824 1.5250 145.4 21.9  579 130
2020 05 27 03  14 01 45.529   -41 08 13.22  .57836 1.5250 145.4 21.9  583 130
2020 05 27 04  14 01 44.628   -41 08 33.38  .57849 1.5250 145.3 21.9  587 130
2020 05 27 05  14 01 43.734   -41 08 53.51  .57861 1.5250 145.3 21.9  591 130
2020 05 27 06  14 01 42.846   -41 09 13.60  .57873 1.5251 145.3 21.9  595 130
2020 05 27 07  14 01 41.964   -41 09 33.65  .57886 1.5251 145.3 21.9  599 130
2020 05 27 08  14 01 41.088   -41 09 53.66  .57898 1.5251 145.2 21.9  603 130
2020 05 27 09  14 01 40.218   -41 10 13.63  .57911 1.5251 145.2 21.9  607 130
2020 05 27 10  14 01 39.354   -41 10 33.56  .57923 1.5251 145.2 21.9  611 130
2020 05 27 11  14 01 38.496   -41 10 53.46  .57936 1.5251 145.1 21.9  615 130
2020 05 27 12  14 01 37.645   -41 11 13.32  .57948 1.5251 145.1 21.9  619 130
2020 05 27 13  14 01 36.799   -41 11 33.14  .57961 1.5251 145.1 21.9  623 130
2020 05 27 14  14 01 35.960   -41 11 52.92  .57973 1.5251 145.0 21.9  628 130
2020 05 27 15  14 01 35.127   -41 12 12.66  .57986 1.5251 145.0 21.9  632 130
2020 05 27 16  14 01 34.300   -41 12 32.37  .57999 1.5252 145.0 21.9  636 130
2020 05 27 17  14 01 33.479   -41 12 52.04  .58011 1.5252 145.0 21.9  640 130
2020 05 27 18  14 01 32.664   -41 13 11.67  .58024 1.5252 144.9 21.9  644 130
2020 05 27 19  14 01 31.856   -41 13 31.26  .58037 1.5252 144.9 21.9  648 130
2020 05 27 20  14 01 31.053   -41 13 50.82  .58049 1.5252 144.9 22.0  652 130
2020 05 27 21  14 01 30.257   -41 14 10.33  .58062 1.5252 144.8 22.0  657 130
2020 05 27 22  14 01 29.467   -41 14 29.82  .58075 1.5252 144.8 22.0  661 130
2020 05 27 23  14 01 28.683   -41 14 49.26  .58088 1.5252 144.8 22.0  665 130
2020 05 28 00  14 01 27.906   -41 15 08.66  .58100 1.5253 144.8 22.0  669 130
2020 05 28 01  14 01 27.134   -41 15 28.03  .58113 1.5253 144.7 22.0  673 130
2020 05 28 02  14 01 26.369   -41 15 47.36  .58126 1.5253 144.7 22.0  678 130
2020 05 28 03  14 01 25.610   -41 16 06.66  .58139 1.5253 144.7 22.0  682 130
2020 05 28 04  14 01 24.857   -41 16 25.92  .58152 1.5253 144.6 22.0  686 130
2020 05 28 05  14 01 24.110   -41 16 45.14  .58165 1.5253 144.6 22.0  690 130
2020 05 28 06  14 01 23.370   -41 17 04.32  .58177 1.5253 144.6 22.0  694 130
2020 05 28 07  14 01 22.635   -41 17 23.46  .58190 1.5253 144.6 22.0  699 130
2020 05 28 08  14 01 21.907   -41 17 42.57  .58203 1.5253 144.5 22.0  703 130
2020 05 28 09  14 01 21.186   -41 18 01.65  .58216 1.5254 144.5 22.0  707 130
2020 05 28 10  14 01 20.470   -41 18 20.68  .58229 1.5254 144.5 22.0  711 130
2020 05 28 11  14 01 19.761   -41 18 39.68  .58242 1.5254 144.4 22.0  716 130